This demonstration page uses our WeatherBlox Daily Observations layout. Learn more.

Left ArrowRight Arrow

30.21309, -93.2044

Hourly Observations for January 6, 2022

Temp ( °F °C ) Dew Point ( °F °C ) Humidity (%) Winds ( mph kmh ) Pressure ( in mb ) Visibility ( mi km ) Precip ( " mm )
12:15 am 00:15 Mostly Cloudy 58 14.3 56 13.5 95 95 SSE 5 7 29.90 1013 10 16 0.00 0.00
12:35 am 00:35 Cloudy 58 14.5 57 13.7 95 95 S 7 11 29.89 1012 10 16 0.00 0.00
12:55 am 00:55 Partly Cloudy 58 14.4 56 13.6 95 95 SSE 8 13 29.88 1012 7 11 0.00 0.00
1:15 am 01:15 Partly Cloudy 59 14.8 57 14.1 96 96 S 6 9 29.88 1012 10 16 0.00 0.00
1:35 am 01:35 Mostly Cloudy 59 14.9 58 14.2 96 96 S 3 6 29.88 1012 7 11 0.00 0.00
1:55 am 01:55 Mostly Cloudy 59 14.9 57 14.1 95 95 SSE 6 9 29.87 1012 7 11 0.00 0.00
2:15 am 02:15 Mostly Cloudy 59 14.9 58 14.2 96 96 SSE 8 13 29.87 1012 7 11 0.00 0.00
2:35 am 02:35 Cloudy 60 15.6 59 14.8 95 95 SSE 3 6 29.87 1012 10 16 0.00 0.00
2:55 am 02:55 Cloudy 60 15.6 59 14.8 95 95 S 6 9 29.87 1012 10 16 0.00 0.00
3:15 am 03:15 Cloudy 60 15.8 59 15 95 95 Calm 29.87 1012 10 16 0.00 0.00
3:35 am 03:35 Cloudy 61 15.9 59 15 94 94 S 6 9 29.87 1012 10 16 0.00 0.00
3:55 am 03:55 Mostly Cloudy 61 16.3 59 15.2 93 93 SSW 6 9 29.88 1012 10 16 0.00 0.00
4:15 am 04:15 Partly Cloudy 60 15.7 58 14.5 93 93 S 6 9 29.87 1012 10 16 0.00 0.00
4:35 am 04:35 Partly Cloudy 60 15.4 58 14.4 94 94 SSW 3 6 29.87 1012 10 16 0.00 0.00
4:55 am 04:55 Mostly Cloudy 59 15.1 58 14.2 94 94 S 7 11 29.87 1012 10 16 0.00 0.00
5:15 am 05:15 Mostly Cloudy 59 15 58 14.2 95 95 S 7 11 29.87 1012 10 16 0.00 0.00
5:35 am 05:35 Mostly Cloudy 62 16.5 60 15.4 93 93 WNW 6 9 29.89 1012 10 16 0.00 0.00
6:00 am 06:00 Mostly Cloudy 63 17 61 16 94 94 Calm 29.89 1012 10 16 0.00 0.00
6:45 am 06:45 Mostly Cloudy 61 16 59 15 94 94 Calm 29.90 1013 10 16 0.00 0.00
7:45 am 07:45 Mostly Cloudy 61 16 59 15 94 94 Calm 29.90 1013 10 16 0.00 0.00
8:45 am 08:45 Mostly Cloudy with Light Rain 61 16 59 15 94 94 Calm 29.90 1013 7 11 0.00 0.00
9:55 am 09:55 Cloudy with Mist and Fog 66 19 64 18 94 94 NW 8 13 29.96 1015 7 11 0.00 0.00
10:45 am 10:45 Mostly Cloudy 68 20 63 17 83 83 WNW 8 13 29.96 1015 7 11 0.00 0.00
11:45 am 11:45 Mostly Cloudy 70 21 63 17 78 78 WNW 9 15 29.96 1015 10 16 0.00 0.00
12:50 pm 12:50 Mostly Cloudy 72 22 61 16 69 69 NW 14 22 29.94 1014 10 16 0.00 0.00
1:45 pm 13:45 Partly Cloudy 73 23 57 14 57 57 WNW 12 19 29.92 1013 10 16 0.00 0.00
2:46 pm 14:46 Mostly Sunny 73 23 54 12 50 50 NNW 14 22 29.93 1014 10 16 0.00 0.00
3:55 pm 15:55 Mostly Sunny 70 21 45 7 40 40 N 15 24 29.96 1015 10 16 0.00 0.00
4:55 pm 16:55 Partly Cloudy with Smoke 63 17 48 9 59 59 N 15 24 30.00 1016 4 6 0.00 0.00
5:47 pm 17:47 Cloudy with Smoke 57 14 46 8 67 67 N 15 24 30.04 1017 4 6 0.00 0.00
7:55 pm 19:55 Partly Cloudy 48 9 46 8 94 94 N 15 24 30.10 1019 10 16 0.00 0.00
8:53 pm 20:53 Mostly Clear 45 7 37 3 76 76 NNE 13 20 30.15 1021 10 16 0.00 0.00
9:55 pm 21:55 Mostly Clear 43 6 36 2 76 76 NNE 13 20 30.16 1021 10 16 0.00 0.00
10:15 pm 22:15 Clear 42 5.8 36 2.3 78 78 N 10 17 30.17 1022 10 16 0.00 0.00
10:35 pm 22:35 Clear 42 5.5 36 2.1 79 79 NE 9 15 30.17 1022 10 16 0.00 0.00
10:55 pm 22:55 Clear 41 5.2 35 1.9 79 79 NE 12 19 30.17 1022 10 16 0.00 0.00
11:15 pm 23:15 Clear 41 4.9 35 1.6 79 79 NNE 12 19 30.17 1022 10 16 0.00 0.00
11:35 pm 23:35 Clear 40 4.6 35 1.5 81 81 NNE 8 13 30.17 1022 10 16 0.00 0.00
11:55 pm 23:55 Clear 40 4.2 33 0.8 79 79 NE 12 19 30.17 1022 10 16 0.00 0.00

Powered by AerisWeather